This is the latest recevied weather packets stored in our database for station/object HB0PJ-13. If no packets are shown the sender has not sent any weather packets the latest 10 day(s).
| Time | Temp. | Humidity | Pressure | Rain* | Wind** | Luminosity | Snow |
|---|---|---|---|---|---|---|---|
| 1777575975 | 17.22° C | 25% | 965.4 hPa | - | - | 0 W/m² | - |
| 1777575735 | 17.78° C | 25% | 965.3 hPa | - | - | 0 W/m² | - |
| 1777575615 | 17.78° C | 25% | 965.3 hPa | - | - | 0 W/m² | - |
| 1777575255 | 18.33° C | 25% | 965.1 hPa | - | - | 0 W/m² | - |
| 1777575015 | 18.33° C | 25% | 965.1 hPa | - | - | 0 W/m² | - |
| 1777574895 | 18.33° C | 25% | 965.1 hPa | - | - | 0 W/m² | - |
| 1777574775 | 18.33° C | 25% | 965 hPa | - | - | 0 W/m² | - |
| 1777574655 | 18.33° C | 25% | 965 hPa | - | - | 0 W/m² | - |
| 1777574535 | 18.89° C | 25% | 965 hPa | - | - | 0 W/m² | - |
| 1777574295 | 18.89° C | 25% | 965 hPa | - | - | 0 W/m² | - |
| 1777574175 | 18.89° C | 24% | 965 hPa | - | - | 1 W/m² | - |
| 1777574055 | 18.89° C | 24% | 964.9 hPa | - | - | 1 W/m² | - |
| 1777573935 | 19.44° C | 24% | 964.9 hPa | - | - | 1 W/m² | - |
| 1777573815 | 19.44° C | 24% | 964.8 hPa | - | - | 1 W/m² | - |
| 1777573695 | 19.44° C | 24% | 964.9 hPa | - | - | 1 W/m² | - |
| 1777573575 | 19.44° C | 24% | 964.8 hPa | - | - | 2 W/m² | - |
| 1777573455 | 20° C | 24% | 964.8 hPa | - | - | 2 W/m² | - |
| 1777573215 | 20.56° C | 23% | 964.7 hPa | - | - | 3 W/m² | - |
| 1777573095 | 20.56° C | 23% | 964.7 hPa | - | - | 3 W/m² | - |
| 1777572975 | 21.11° C | 22% | 964.7 hPa | - | - | 4 W/m² | - |
| 1777572735 | 21.67° C | 21% | 964.7 hPa | - | - | 5 W/m² | - |
| 1777572615 | 22.78° C | 21% | 964.7 hPa | - | - | 6 W/m² | - |
| 1777572495 | 23.33° C | 20% | 964.7 hPa | - | - | 7 W/m² | - |
| 1777572255 | 25° C | 20% | 964.7 hPa | - | - | 88 W/m² | - |
| 1777572135 | 26.11° C | 20% | 964.8 hPa | - | - | 178 W/m² | - |
* Rain since midnight (hover to see other rain measurements)
** Current wind speed in m/s (hover to see current wind gust speed)